www.pogodaiklimat.ru

Архив погоды в Сересе (Аргентина)

Время
(UTC), дата
10 6.04
11 6.04
12 6.04
13 6.04
14 6.04
15 6.04
16 6.04
17 6.04
18 6.04
19 6.04
20 6.04
21 6.04
22 6.04
23 6.04
00 7.04
01 7.04
02 7.04
03 7.04
04 7.04
05 7.04
06 7.04
07 7.04
08 7.04
09 7.04
10 7.04
11 7.04
12 7.04
13 7.04
14 7.04
15 7.04
16 7.04
17 7.04
18 7.04
19 7.04
20 7.04
21 7.04
22 7.04
23 7.04
00 8.04
01 8.04
02 8.04
03 8.04
04 8.04
05 8.04
06 8.04
07 8.04
08 8.04
09 8.04
10 8.04
11 8.04
12 8.04
13 8.04
14 8.04
15 8.04
16 8.04
17 8.04
18 8.04
19 8.04
20 8.04
21 8.04
22 8.04
23 8.04
00 9.04
01 9.04
02 9.04
03 9.04
04 9.04
05 9.04
06 9.04
07 9.04
08 9.04
09 9.04
10 9.04
11 9.04
12 9.04
13 9.04
14 9.04
15 9.04
16 9.04
17 9.04
18 9.04
19 9.04
20 9.04
21 9.04
22 9.04
23 9.04
00 10.04
01 10.04
02 10.04
03 10.04
04 10.04
05 10.04
06 10.04
07 10.04
08 10.04
09 10.04
10 10.04
11 10.04
12 10.04
13 10.04
14 10.04
15 10.04
16 10.04
17 10.04
18 10.04
19 10.04
20 10.04
21 10.04
22 10.04
23 10.04
00 11.04
01 11.04
02 11.04
03 11.04
04 11.04
05 11.04
06 11.04
07 11.04
08 11.04
09 11.04
10 11.04
11 11.04
12 11.04
13 11.04
14 11.04
15 11.04
16 11.04
17 11.04
18 11.04
19 11.04
20 11.04
21 11.04
22 11.04
23 11.04
00 12.04
01 12.04
02 12.04
03 12.04
04 12.04
05 12.04
06 12.04
07 12.04
08 12.04
09 12.04
11 12.04
12 12.04
13 12.04
14 12.04
15 12.04
16 12.04
17 12.04
18 12.04
19 12.04
20 12.04
21 12.04
22 12.04
23 12.04
00 13.04
01 13.04
02 13.04
03 13.04
04 13.04
05 13.04
06 13.04
07 13.04
08 13.04
09 13.04
Ветер
(напр.,м/с)
Видим. Явления Облачность Т
(С)
Тd
(С)
f
(%)
Тe
(С)
Тes
(С)
Комфортность P
(гПа)
Po
(гПа)
Тmin
(С)
Tmax
(С)
R
(мм)
R24
(мм)
S
(см)
В 7 15 км 10/10 1050 м
[Sc Ac As]
+21.0 +16.6 76 +24 +24 комфорт 1011.0 1000.8
штиль 0 15 км 10/5 1050 м
[Sc Ac As]
+20.5 +17.6 83 +24 +24 комфорт 1012.3 1002.1
СВ 4 4000 м гроза, ливневой дождь 10/6 900 м
[Cb cap As op]
+19.8 +18.0 89 +23 +23 комфорт 1012.8 1002.6 +19.5 +24.6 2
В 3 3000 м гроза, ливневой дождь 10/6 900 м
[Cb cap As op]
+19.3 +18.3 94 +22 +22 комфорт 1014.3 1004.0
В 4 3000 м слаб. ливневой дождь, в посл. час гроза 10/9 450 м
[Frnb As op]
+19.2 +18.2 94 +21 +21 комфорт 1013.2 1002.9
В 4 3000 м слаб. дождь {гроза} 10/9 450 м
[Frnb As op]
+19.2 +18.2 94 +21 +21 комфорт 1012.5 1002.4
В 7 3000 м слаб. дождь 10/9 450 м
[Frnb As op]
+19.2 +18.2 94 +21 +21 комфорт 1011.6 1001.4
В 7 3000 м слаб. дождь 10/9 540 м
[Frnb As op]
+19.0 +18.2 95 +20 +20 1011.1 1000.9
В 7 3000 м гроза, ливневой дождь 10/9 450 м
[Cb cap As op]
+18.2 +17.7 97 +18 +18 1010.4 1000.2 26
В 7 4000 м гроза, ливневой дождь 10/9 450 м
[Cb cap As op]
+17.9 +17.2 96 +17 +17 1010.1 999.8
В 4 4000 м гроза, ливневой дождь 10/9 450 м
[Cb cap As op]
+17.9 +17.2 96 +18 +18 1010.3 1000.0
В 4 2000 м слаб. ливневой дождь, в посл. час гроза туман 10/9 450 м
[Frnb As op]
+17.0 +15.7 92 +16 +16 1010.3 1000.0
В 7 2000 м слаб. дождь {гроза} туман 10/9 450 м
[Frnb As op]
+16.4 +15.7 96 +15 +15 1011.5 1001.2
В 7 4000 м слаб. дождь 10/9 450 м
[Frnb As op]
+16.8 +15.4 91 +16 +16 1013.0 1002.6
ЮВ 7 3000 м слаб. дождь {гроза} 10/9 450 м
[Frnb As op]
+16.0 +14.6 91 +14 +14 1014.4 1004.0 +16.0 +19.8 25
В 4 15 км в посл. час дождь 10/5 540 м
[St Ac As]
+15.8 +14.8 94 +15 +15 1015.2 1004.8
В 4 15 км {дождь} 9/9 600 м
[St Ac As]
+16.0 +14.6 91 +15 +15 1014.3 1003.8
В 4 15 км {дождь} 10/10 540 м
[St]
+16.0 +14.6 91 +15 +15 1014.3 1004.0
В 3 15 км 10/10 540 м
[St]
+16.4 +15.0 91 +16 +16 1015.7 1005.3
В 2 15 км 10/10 540 м
[St]
+16.4 +15.0 91 +17 +17 1015.6 1005.2
ЮВ 3 15 км {дождь} 10/10 540 м
[St]
+16.5 +15.1 91 +16 +16 1015.5 1005.0
Ю 4 15 км 10/10 540 м
[St]
+16.5 +15.1 91 +16 +16 1014.5 1004.1
ЮВ 4 15 км 10/10 540 м
[St]
+16.2 +14.8 91 +15 +15 1013.5 1003.2
ЮВ 4 15 км 10/10 540 м
[St]
+16.0 +14.6 91 +15 +15 1013.6 1003.2
ЮВ 4 5000 м слаб. морось 10/10 540 м
[St]
+15.9 +14.7 93 +15 +15 1014.8 1004.4
В 4 5000 м слаб. морось 10/10 540 м
[St]
+15.9 +14.9 94 +15 +15 1015.6 1005.2
ЮВ 3 5000 м в посл. час морось туман 10/10 540 м
[St]
+16.3 +15.3 94 +16 +16 1015.9 1005.4 +15.5 +16.5 0.0
ЮВ 3 6000 м дымка {морось} 10/6 540 м
[St As op]
+17.1 +15.6 91 +17 +18 1016.1 1005.7
В 3 15 км 10/6 900 м
[Sc As op]
+18.3 +16.0 86 +19 +20 1015.9 1005.4
В 3 15 км 10/8 900 м
[Sc As op]
+18.9 +16.3 85 +21 +21 комфорт 1015.5 1005.2
Ю 3 15 км 10/8 1050 м
[Sc Ac As]
+19.8 +16.5 81 +23 +23 комфорт 1015.1 1004.8
Ю 4 15 км 10/10 750 м
[Frnb]
+19.9 +16.6 81 +22 +22 комфорт 1015.0 1004.6
Ю 3 15 км 10/10 750 м
[Sc]
+20.2 +16.6 80 +24 +24 комфорт 1015.0 1004.6
В 3 15 км 6/6 900 м
[Sc]
+21.4 +16.7 75 +25 +28 комфорт 1014.1 1003.7
В 3 15 км 6/6 900 м
[Sc]
+22.0 +16.8 72 +26 +27 душно 1014.0 1003.6
В 3 15 км 8/8 900 м
[Sc]
+22.0 +16.8 72 +26 +26 душно 1013.2 1002.9
В 1 15 км 1/1 900 м
[Sc]
+20.8 +17.6 82 +26 +26 душно 1013.7 1003.3
штиль 0 6000 м дымка ясно +19.2 +17.3 89 +21 +21 комфорт 1014.0 1003.6
Ю 1 5000 м дымка ясно +18.5 +17.0 91 +20 +20 1014.2 1003.8 +16.3 +22.0
Ю 1 5000 м дымка ясно +17.9 +16.6 92 +19 +19 1015.0 1004.5
Ю 1 5000 м дымка ясно +17.2 +16.0 93 +18 +18 1015.5 1005.0
Ю 3 6000 м дымка ясно +17.1 +16.1 94 +17 +17 1015.8 1005.4
Ю 3 800 м туман на расстоянии ясно +16.1 +14.9 93 +16 +16 1015.3 1004.9
Ю 3 800 м туман на расстоянии ясно +15.9 +15.0 94 +16 +16 1014.8 1004.4
Ю 1 15 км в посл. час туман ясно +15.5 +14.3 93 +16 +16 1014.6 1004.2
Ю 1 8000 м дымка {туман} ясно +15.4 +14.2 93 +16 +16 1014.2 1003.8
Ю 3 8000 м дымка 4/0
[Ac As]
+15.9 +14.9 94 +16 +16 1013.9 1003.6
Ю 8 8000 м дымка 8/0
[Ac As]
+15.7 +14.7 94 +14 +14 1013.5 1003.2
Ю 3 8000 м дымка 9/3 1200 м
[Sc Ac As]
+15.9 +15.0 94 +16 +16 1013.4 1003.0
В 3 8000 м дымка 6/5 900 м
[Sc Ac As]
+16.1 +14.9 93 +16 +16 1013.2 1002.8
ЮВ 1 900 м туман, небо видно 10/10 300 м
[St]
+17.1 +16.1 94 +18 +18 1013.5 1003.0 +15.2 +18.5
В 1 8000 м в посл. час туман туман 10/10 600 м
[Sc]
+18.2 +17.2 94 +20 +20 1013.6 1003.3
В 1 8000 м дымка {туман} 10/5 600 м
[Sc Ac As]
+19.6 +18.2 92 +23 +25 комфорт 1013.8 1003.4
В 3 15 км {туман} 10/4 600 м
[Sc Ac As]
+21.6 +17.8 79 +26 +28 душно 1013.2 1002.9
С 3 15 км 10/8 600 м
[Sc Ac As]
+22.7 +16.0 66 +27 +28 душно 1012.2 1002.0
С 4 15 км 10/8 600 м
[Sc Ac As]
+23.1 +16.1 65 +28 +28 душно 1011.8 1001.6
СЗ 4 15 км {туман} 10/6 600 м
[Sc Ac As]
+23.7 +16.2 63 +27 +28 жарко 1011.3 1001.0
С 4 15 км 9/5 1050 м
[Sc Ac As]
+23.9 +16.5 63 +27 +28 жарко 1010.4 1000.1
СВ 3 15 км 6/3 1050 м
[Sc Ac As]
+24.7 +17.1 63 +29 +30 душно 1009.6 999.3
В 3 15 км 4/1 1050 м
[Sc Ac As]
+23.9 +17.6 68 +28 +28 душно 1009.0 998.6
В 1 15 км 4/0 1000 м
[Ac As]
+21.9 +18.4 81 +27 +27 душно 1009.3 999.0
В 1 15 км ясно +19.6 +17.3 87 +23 +23 комфорт 1009.3 998.9
В 1 8000 м дымка ясно +18.9 +16.6 87 +21 +21 комфорт 1009.8 999.4 +16.7 +24.7
В 3 6000 м дымка ясно +18.2 +16.4 89 +19 +19 1010.5 1000.2
В 1 6000 м дымка ясно +17.6 +16.3 92 +19 +19 1010.9 1000.6
В 1 6000 м дымка ясно +17.0 +15.7 92 +18 +18 1011.2 1000.9
В 1 6000 м дымка ясно +16.6 +15.6 94 +17 +17 1011.3 1001.0
В 1 6000 м дымка 5/0
[Ac As]
+16.8 +15.6 93 +18 +18 1011.9 1001.7
В 1 8000 м дымка 5/0
[Ac As]
+16.8 +15.4 91 +18 +18 1012.3 1002.1
В 1 8000 м дымка 5/0
[Ac As]
+16.2 +14.8 91 +17 +17 1012.3 1002.1
В 3 8000 м дымка 5/5 750 м +16.7 +15.2 91 +17 +17 1011.8 1001.6
В 3 8000 м дымка 3/0
[Ac As]
+16.6 +15.6 94 +16 +16 1011.9 1001.7
В 1 8000 м дымка 3/0
[Ac As]
+16.6 +15.9 96 +17 +17 1012.2 1002.0
В 1 8000 м дымка 1/0
[Ac As]
+17.2 +15.9 92 +18 +18 1013.1 1002.8
В 1 15 км 1/0
[Ac As]
+20.2 +18.0 87 +25 +27 комфорт 1014.1 1003.7 +16.0 +20.2
В 3 15 км 3/0
[Ac As]
+23.2 +18.2 73 +29 +33 душно 1014.3 1004.0
В 3 15 км 6/0
[Ac As]
+25.6 +20.8 75 +32 +37 очень душно 1014.6 1004.2
В 3 15 км 8/1 900 м
[Cu hum Ac As]
+26.8 +20.5 68 +33 +38 очень душно 1014.7 1004.4
В 3 15 км 9/3 900 м
[Cu hum Ac As]
+26.6 +21.2 72 +34 +37 очень душно 1014.3 1004.0
СВ 1 15 км 10/6 750 м
[Sc Ac As]
+27.7 +20.7 66 +35 +36 очень душно 1013.1 1002.9
СЗ 4 15 км 10/5 750 м
[Sc Ac As]
+28.6 +21.2 64 +36 +37 очень душно 1012.6 1002.4
З 3 15 км 10/3 600 м
[Sc Ac As]
+25.2 +21.5 80 +32 +33 очень душно 1012.2 1002.0
Ю 3 15 км 10/3 600 м
[Sc Ac As]
+25.3 +21.1 78 +32 +33 очень душно 1012.3 1002.1
Ю 3 15 км 10/3 600 м
[Sc Ac As]
+24.6 +22.1 86 +32 +32 очень душно 1011.9 1001.7
Ю 3 8000 м в посл. час морось туман 10/4 600 м
[Sc As op]
+23.2 +21.1 88 +31 +31 очень душно 1011.6 1001.3
Ю 3 8000 м дымка {морось} 10/4 600 м
[Sc As op]
+23.2 +21.1 88 +31 +31 очень душно 1012.4 1002.1
Ю 1 8000 м дымка {морось} 10/4 600 м
[Sc As op]
+23.0 +20.7 87 +30 +30 очень душно 1012.7 1002.4 +20.2 +28.6 0.0
Ю 3 8000 м дымка 9/1 900 м
[Sc Ac As]
+22.8 +20.7 88 +30 +30 очень душно 1012.7 1002.5
Ю 3 8000 м дымка 9/1 900 м
[Sc Ac As]
+22.6 +20.5 88 +29 +29 очень душно 1013.0 1002.9
Ю 3 8000 м дымка 10/3 600 м
[Sc Ac As]
+22.6 +20.8 90 +30 +30 очень душно 1013.2 1003.0
Ю 3 8000 м дымка 10/3 600 м
[Sc Ac As]
+22.2 +21.3 95 +29 +29 очень душно 1013.8 1003.6
Ю 3 15 км 10/4 600 м
[Sc Ac As]
+21.8 +19.6 87 +27 +27 душно 1013.4 1003.2
Ю 3 15 км 10/4 600 м
[Sc Ac As]
+21.8 +19.3 86 +27 +27 душно 1013.2 1003.0
Ю 3 15 км 10/4 600 м
[Sc Ac As]
+21.2 +19.3 89 +26 +26 душно 1013.0 1002.9
Ю 3 15 км 10/4 900 м
[Sc Ac As]
+21.2 +19.3 89 +26 +26 душно 1012.6 1002.5
Ю 3 15 км 10/6 750 м
[Sc Ac As]
+21.0 +18.1 84 +26 +26 душно 1012.9 1002.6
Ю 3 15 км 10/6 750 м
[Sc Ac As]
+20.9 +18.0 83 +25 +25 комфорт 1013.3 1003.0
Ю 3 3000 м слаб. дождь туман 10/5 540 м
[Frnb As op]
+20.2 +18.6 91 +24 +24 комфорт 1014.4 1004.1
ЮВ 3 4000 м слаб. дождь туман 10/8 540 м
[Frnb As op]
+20.2 +18.8 92 +24 +24 комфорт 1014.9 1004.6 +20.0 +23.0 2
ЮВ 3 5000 м в посл. час дождь туман 10/5 540 м
[Frnb As op]
+20.2 +18.6 91 +24 +25 комфорт 1015.8 1005.6
В 4 6000 м дымка {дождь} 10/3 540 м
[Frnb Ac As]
+21.2 +19.3 89 +26 +27 душно 1015.9 1005.6
Ю 7 15 км {дождь} 9/4 540 м
[Frnb Ac As]
+22.4 +19.0 81 +28 +29 душно 1015.6 1005.3
ЮВ 4 15 км 9/3 540 м
[Frnb Ac As]
+22.2 +18.8 81 +28 +30 душно 1015.1 1004.8
ЮВ 4 15 км 10/5 420 м
[Frnb Ac As]
+22.8 +20.4 86 +30 +31 очень душно 1014.9 1004.6
Ю 4 15 км {дождь} 10/5 450 м
[Frnb Ac As]
+23.2 +18.8 76 +29 +30 душно 1014.4 1004.1 0.0
Ю 7 15 км 10/5 450 м
[Frnb As op]
+22.4 +19.0 81 +28 +28 душно 1014.4 1004.1
Ю 7 8000 м слаб. дождь 10/5 450 м
[Frnb As op]
+21.8 +20.6 93 +28 +28 душно 1014.8 1004.5
Ю 7 6000 м слаб. дождь 10/9 450 м
[Frnb As op]
+20.4 +18.2 87 +24 +24 комфорт 1015.3 1005.0
Ю 7 15 км в посл. час дождь 10/9 300 м
[Frnb As op]
+18.8 +16.2 85 +19 +19 1016.0 1005.7
Ю 7 15 км {дождь} 10/9 300 м
[Frnb As op]
+18.6 +16.3 86 +19 +19 1016.4 1006.1
Ю 7 15 км {дождь} 10/9 450 м
[Frnb As op]
+17.8 +15.4 86 +17 +17 1017.6 1007.3 +17.8 +23.2 0.4
Ю 7 15 км 10/9 450 м
[Frnb As op]
+17.2 +15.5 90 +16 +16 1018.7 1008.4
Ю 7 15 км 10/8 450 м
[Frnb As op]
+16.2 +14.1 87 +15 +15 1019.2 1008.8
Ю 7 15 км 10/10 450 м
[Frnb]
+15.5 +13.0 85 +14 +14 1019.9 1009.4
Ю 7 15 км 10/9 540 м
[Frnb As op]
+15.1 +13.5 90 +13 +13 1019.9 1009.4
Ю 4 15 км 10/9 450 м
[Frnb As op]
+15.2 +13.1 87 +14 +14 1019.9 1009.4
Ю 7 15 км 10/9 450 м
[Frnb As op]
+15.3 +13.0 86 +14 +14 1019.8 1009.4
Ю 7 15 км 10/9 450 м
[Frnb As op]
+14.2 +11.0 81 +12 +12 1019.9 1009.4
Ю 7 15 км 10/9 450 м
[Frnb As op]
+14.0 +10.8 81 +12 +12 1019.8 1009.3
Ю 4 15 км 10/0
[Ac As]
+13.6 +10.8 83 +12 +12 1019.9 1009.4
Ю 4 15 км 10/0
[Ac As]
+13.6 +10.8 83 +12 +12 1020.0 1009.6
Ю 4 15 км 9/5 600 м
[St Ac As]
+13.6 +10.8 83 +12 +12 1020.8 1010.2
Ю 7 15 км 9/6 750 м
[Sc Ac As]
+13.8 +10.6 81 +12 +12 1021.3 1010.8 +13.5 +17.8 0.4
ЮВ 7 15 км 8/0
[Ac As]
+15.2 +10.9 75 +13 +14 1020.9 1010.4
ЮВ 4 15 км 5/4 900 м
[Sc Ac As]
+16.6 +11.7 73 +16 +19 1020.7 1010.2
ЮВ 4 15 км 5/4 600 м
[Sc Ac As]
+18.0 +12.3 69 +18 +22 1020.7 1010.2
В 4 15 км 8/8 900 м
[Sc]
+19.0 +13.3 70 +20 +22 1020.0 1009.4
ЮВ 4 15 км 9/9 750 м
[Sc]
+20.2 +13.9 67 +22 +23 комфорт 1019.4 1009.0
ЮВ 4 15 км 10/10 900 м
[Sc]
+20.2 +14.8 71 +23 +23 комфорт 1018.6 1008.2
ЮВ 4 15 км 10/10 900 м
[Sc]
+20.3 +14.9 71 +23 +23 комфорт 1018.1 1007.7
ЮВ 4 15 км 10/10 900 м
[Sc]
+20.2 +14.8 71 +23 +23 комфорт 1017.8 1007.4
В 4 15 км 10/10 900 м
[Sc]
+19.4 +14.5 73 +21 +21 комфорт 1017.8 1007.3
В 4 15 км 10/10 900 м
[Sc]
+19.0 +14.2 74 +20 +20 1018.0 1007.6
В 4 15 км 10/8 450 м
[Frnb As op]
+18.4 +14.7 79 +19 +19 1018.6 1008.1
В 4 15 км 10/8 450 м
[Frnb As op]
+18.4 +14.5 78 +19 +19 1018.5 1008.1 +13.8 +20.4
ЮВ 2 15 км 10/8 750 м
[Frnb As op]
+18.6 +14.1 75 +20 +20 1018.9 1008.4
ЮВ 3 15 км 10/8 900 м
[Frnb As op]
+18.2 +14.1 77 +19 +19 1018.9 1008.4
ЮВ 2 15 км 10/8 900 м
[Frnb As op]
+18.5 +13.8 74 +20 +20 1018.9 1008.5
ЮВ 4 15 км 10/9 600 м
[Frnb As op]
+18.4 +13.7 74 +19 +19 1018.5 1008.1
ЮВ 4 15 км 10/10 600 м
[Frnb]
+18.4 +13.7 74 +19 +19 1017.9 1007.6
ЮВ 4 15 км 10/10 600 м
[Frnb]
+18.2 +13.9 76 +18 +18 1017.7 1007.3
ЮВ 4 15 км 10/10 750 м
[Frnb]
+18.2 +13.9 76 +18 +18 1017.0 1006.6
ЮВ 4 15 км 10/10 750 м
[Frnb]
+18.0 +14.0 77 +18 +18 1016.6 1006.2
ЮВ 3 15 км 10/10 750 м
[Frnb]
+17.8 +14.2 79 +18 +18 1001.6 1006.0
ЮВ 3 4000 м слаб. дождь 10/10 750 м
[Frnb Ns]
+16.8 +14.9 89 +17 +17 1001.7 1007.0
Ю 3 5000 м в посл. час дождь туман 10/6 750 м
[Frnb As op]
+16.9 +15.2 90 +17 +17 1001.7 1006.9 +16.5 +18.6 0.5
ЮВ 4 15 км в посл. час морось {дождь} 10/6 750 м
[Frnb As op]
+17.4 +15.2 87 +17 +17 1001.6 1006.2
ЮВ 4 4000 м морось 10/6 750 м
[Sc As op]
+17.7 +15.7 88 +17 +18 1001.6 1006.2
В 4 4000 м слаб. морось 10/6 750 м
[Sc As op]
+18.0 +16.2 89 +18 +18 1016.0 1005.6
ЮВ 3 2000 м дождь {морось} 10/8 750 м
[Sc As op]
+17.9 +16.2 90 +18 +19 1015.4 1005.0
ЮВ 3 3000 м слаб. дождь 10/8 750 м
[Frnb As op]
+18.0 +16.9 93 +18 +19 1015.1 1004.8
ЮВ 3 3000 м слаб. дождь {морось} 10/8 600 м
[Frnb As op]
+18.0 +17.0 94 +18 +19 1015.0 1004.6 10
ЮВ 3 4000 м слаб. дождь 10/8 600 м
[Frnb As op]
+18.0 +17.0 94 +18 +19 1014.4 1004.1
ЮВ 3 4000 м дождь 10/10 600 м
[Frnb]
+17.5 +16.7 95 +18 +18 1013.6 1003.2
ЮВ 3 15 км в посл. час морось {дождь} 10/10 600 м
[Frnb]
+17.2 +16.4 95 +17 +17 1013.6 1003.2
Ю 3 15 км {морось} 10/10 600 м
[Frnb]
+17.4 +16.2 93 +18 +18 1013.7 1003.3
ЮВ 3 5000 м слаб. морось 10/10 600 м
[Frnb]
+17.2 +16.4 95 +17 +17 1013.4 1003.0
ЮВ 3 5000 м слаб. морось {дождь} 10/10 540 м
[Frnb]
+17.3 +16.3 94 +17 +17 1014.1 1003.7 +16.9 +18.0 4
ЮВ 3 5000 м слаб. морось 10/10 540 м
[Frnb]
+17.4 +16.4 94 +18 +18 1014.4 1004.0
Ю 3 15 км в посл. час морось 10/10 540 м
[Frnb]
+17.4 +16.4 94 +18 +18 1014.5 1004.1
Ю 3 15 км {морось} 10/10 540 м
[Frnb]
+17.5 +16.5 94 +18 +18 1015.0 1004.6
ЮВ 3 3000 м морось 10/10 540 м
[Frnb]
+17.4 +16.6 95 +18 +18 1015.3 1004.0
Ю 3 4000 м слаб. морось 10/10 540 м
[Frnb]
+17.1 +16.3 95 +17 +17 1013.9 1003.6
Ю 3 4000 м слаб. морось 10/10 540 м
[Frnb]
+17.3 +16.5 95 +17 +17 1013.8 1003.4 2
Ю 4 3000 м морось 10/10 540 м
[Frnb]
+17.4 +16.6 95 +17 +17 1012.9 1002.5
Ю 4 3000 м морось 10/10 540 м
[Frnb]
+17.5 +16.7 95 +17 +17 1012.5 1002.1
Ю 3 4000 м слаб. морось 10/10 300 м
[St]
+17.6 +16.9 96 +18 +18 1012.6 1002.2
Местоположение метеостанции Серес (Аргентина): широта -29.88 долгота -61.95 высота над уровнем моря 88 м.
В архиве по умолчанию представлена погода в Сересе за последнюю неделю. Архивные данные за месяц целиком и за предыдущие месяцы, начиная с января 2011 года, Вы можете получить, выбрав интересующий диапазон дат из раскрывающегося списка и нажав кнопку "Найти!".
*Определитесь, кто Вы:
Внимание! Время в таблицах - всемирное. Для получения местного времени необходимо прибавить поправку, которая равна -3 ч.
Некоторые строки с данными для отдельных станций могут быть выделены курсивом. Это означает, что фактические данные отсутствуют по различным причинам, а приведенные значения являются расчетными модельными данными для данного пункта наблюдений.
Смотрите также архив погоды в соседних городах и на ближайших метеорологических станциях:
Партнеры нашего сайта:      
Пояснения к столбцам:
  • Ветер - указаны скорость ветра в м/с - средняя за 10 мин, порывы в срок и между сроками (в фигурных скобках) и направление, откуда дует ветер: С - северный,
  • СВ - северо-восточный, В - восточный, ЮВ - юго-восточный, Ю - южный, ЮЗ - юго-западный, З - западный, СЗ - северо-западный.
  • Видимость - горизонтальная дальность видимости в метрах или километрах. При видимости от 1 до 10 км при отсутствии осадков обычно наблюдается дымка, при ухудшении видимости до 1 км и менее - туман. В сухую погоду видимость может ухудшаться дымом, пылью или мглою.
  • Явления - указаны атмосферные явления, наблюдавшиеся в срок или в последний час перед сроком; фигурными скобками обозначены явления, наблюдавшиеся между сроками (за 1-3 часа до срока); квадратными скобками обозначены град или гололедные отложения с указанием их диаметра в мм.
  • Облачность - указаны через наклонную черту общая и нижняя облачность в баллах и высота нижней границы облаков в метрах; квадратными скобками обозначены формы облаков: Ci - перистые, Cs - перисто-слоистые, Cc - перисто-кучевые, Ac - высококучевые, As - высокослоистые, Sc - слоисто-кучевые, Ns - слоисто-дождевые, Cu - кучевые, Cb - кучево-дождевые. Подробнее классификацию облаков см. в Атласе облаков (PDF).
  • T - Температура воздуха - температура, измеренная на высоте 2 м над землей.
  • Td - Температура точки росы - температура, при понижении до которой содержащийся в воздухе водяной пар достигнет насыщения.
  • f - Относительная влажность воздуха - влажноcть воздуха, измеренная на высоте 2 м над землей.
  • Te - Эффективная температура - температура, которую ощущает одетый по сезону человек в тени. Характеристика душности погоды. При расчете учитывается влияние влажности воздуха и скорости ветра на теплоощущения человека.
  • Tes - Эффективная температура на солнце - температура, которую ощущает человек, с поправкой на солнечный нагрев. Характеристика знойности погоды. Зависит от высоты солнца над горизонтом, облачности и скорости ветра. Ночью, в пасмурную погоду, а также при ветре 12 м/с и более поправка равна нулю.
  • P - Атмосферное давление - приведенное к уровню моря атмосферное давление.
  • Po - Атмосферное давление - измеренное на уровне метеостанции атмосферное давление.
  • Tmin - Минимальная температура - минимум температуры воздуха на высоте 2 м над землей.
  • Tmax - Максимальная температура - максимум температуры воздуха на высоте 2 м над землей.
  • R - Количество осадков - Количество выпавших осадков за период времени, мм. При наведении курсора мыши на число - период времени, за который выпало указанное количество осадков.
  • R24 - Количество осадков - Количество выпавших осадков за 24 часа, мм.
  • S - Снежный покров - Высота снежного покрова, см. При наведении курсора мыши на число - состояние снежного покрова и степень покрытия местности в баллах.